Regional Weather Roundup
Issued by NWS

Home | Current Version | Previous Version | Graphics & Text | Print | Product List | Glossary On
Versions: 1 2 3 4 5 6 7 8 9 10 11 12 13 14 15 16 17 18 19 20 21 22 23 24 25 26 27 28 29 30 31 32 33 34 35 36 37 38 39 40 41 42 43 44 45 46 47 48 49 50
000
ASUS43 KMKX 270500
RWRWI

WISCONSIN REGIONAL WEATHER ROUNDUP
NATIONAL WEATHER SERVICE MILWAUKEE/SULLIVAN WI
1100 PM CST MON JAN 26 2015

NOTE: "FAIR" INDICATES FEW OR NO CLOUDS BELOW 12,000 FEET WITH NO
SIGNIFICANT WEATHER AND/OR OBSTRUCTIONS TO VISIBILITY.

WIZ001-002-006>008-014>016-023>028-270600-
NORTHWEST WISCONSIN

CITY           SKY/WX    TMP DP  RH WIND       PRES   REMARKS
SUPERIOR ARPT  CLOUDY    30  25  83 N6        29.96R WCI  24
ASHLAND        CLOUDY    25  22  88 W3        29.96R
HAYWARD        CLOUDY    27  24  89 VRB5      29.93R WCI  22
SIREN          CLOUDY    32  26  80 N6        29.95R WCI  26
CUMBERLAND     CLOUDY    30  28  93 N10G16    29.92R WCI  21
RICE LAKE      CLOUDY    31  28  89 N7        29.93R WCI  24
CHETEK         CLOUDY    27  26  96 CALM      29.92R
LADYSMITH      CLOUDY    24  23  94 CALM      29.91R
EAU CLAIRE     NOT AVBL
MENOMONIE      CLOUDY    31  29  94 N3        29.92R FOG
NEW RICHMOND   CLOUDY    35  29  79 N12       29.94R WCI  26
OSCEOLA        CLOUDY    36  29  76 N7        29.97R WCI  30
$$

WIZ003>005-009-010-017-018-270600-
NORTH CENTRAL WISCONSIN

CITY           SKY/WX    TMP DP  RH WIND       PRES   REMARKS
MANITOWISH WTR CLOUDY    19  17  94 CALM      29.89R
ARBOR VITAE    CLOUDY    22  19  89 CALM      29.89R
WOODRUFF       CLOUDY    22  19  89 CALM      29.89R
RHINELANDER    CLOUDY    19  17  92 CALM      29.90R
EAGLE RIVER    CLOUDY    19  16  86 CALM      29.89R
LAND O LAKES   CLOUDY    19  17  92 CALM      29.90R
PHILLIPS       CLOUDY    20  18  93 CALM      29.88S
TOMAHAWK       CLOUDY    20  18  91 CALM      29.90R FOG
MEDFORD        CLOUDY    20  19  95 CALM      29.88R FOG
MERRILL        CLOUDY    21  19  94 CALM      29.90R
$$

WIZ029-030-035-036-043>047-270600-
CENTRAL WISCONSIN

CITY           SKY/WX    TMP DP  RH WIND       PRES   REMARKS
WAUSAU         CLOUDY    21  19  92 NE3       29.89R
MOSINEE        CLOUDY    21  21 100 E3        29.89S
MARSHFIELD     CLOUDY    23  21  92 NE3       29.89R FOG
STEVENS POINT  CLOUDY    20  19  94 CALM      29.90R
WAUPACA        LGT SNOW  26  23  89 CALM      29.92S
WAUTOMA        NOT AVBL
WISC RAPIDS    CLOUDY    23  19  85 CALM      29.91S
CAMP DOUGLAS   NOT AVBL
$$

WIZ011>013-019>022-031-037>040-048>050-270600-
NORTHEAST WISCONSIN

CITY           SKY/WX    TMP DP  RH WIND       PRES   REMARKS
ANTIGO         CLOUDY    20  19  96 E6        29.88S WCI  12
SHAWANO        LGT SNOW  25  22  89 CALM      29.94R
OCONTO         CLOUDY    24  23  97 CALM      29.96R
STURGEON BAY   CLOUDY    23  18  80 SE8       29.99R WCI  14
GREEN BAY      LGT SNOW  25  23  92 E3        29.95R FOG
MANITOWOC      NOT AVBL
APPLETON       LGT SNOW -11  23 100 SE3       29.92R
CLINTONVILLE   LGT SNOW  25  23  93 CALM      29.92S
OSHKOSH        CLOUDY    24  21  88 CALM      29.92R FOG
$$

WIZ032>034-041-042-053>061-270600-
SOUTHWEST WISCONSIN

CITY           SKY/WX    TMP DP  RH WIND       PRES   REMARKS
LA CROSSE      LGT SNOW  30  27  88 CALM      29.92R FOG
SPARTA         CLOUDY    27  27 100 CALM      29.91R FOG
VIROQUA        CLOUDY    27  27 100 NW3       29.87R
BOSCOBEL       CLOUDY    27  24  89 CALM      29.92R FOG
PRAIRIE DU CHI CLOUDY    29  26  89 CALM      29.90R FOG
PLATTEVILLE    MOCLDY    26  25  96 CALM      29.88R
$$

WIZ056-057-062-063-064-067-068-270600-
SOUTH CENTRAL WISCONSIN

CITY           SKY/WX    TMP DP  RH WIND       PRES   REMARKS
REEDSBURG      CLOUDY    24  23  96 CALM      29.89R
BARABOO/DELLS  CLOUDY    23  21  93 CALM      29.89R FOG
LONE ROCK      NOT AVBL
MINERAL POINT  CLOUDY    28  27  93 CALM      29.87R FOG
MADISON        CLOUDY    25  22  88 CALM      29.90R
MIDDLETON      CLOUDY    26  25  95 CALM      29.89R
WATERTOWN      MIX PCPN  24  24 100 CALM      29.90R
MONROE         LGT SNOW  27  25  93 CALM      29.87R VSB 1
JANESVILLE     LGT SNOW  28  27  93 CALM      29.89R
$$

WIZ051-052-058>065-066-070>072-270600-
SOUTHEAST WISCONSIN

CITY           SKY/WX    TMP DP  RH WIND       PRES   REMARKS
MILWAUKEE      LGT SNOW  26  22  84 CALM      29.92R
WAUKESHA       LGT SNOW  23  21  93 CALM      29.91R
MILWAUKEE/TIMM CLOUDY    27  21  80 S3        29.92R
RACINE         LGT SNOW  26  23  88 CALM      29.93R FOG
BURLINGTON     LGT SNOW  23  22  96 CALM      29.90R
KENOSHA        CLOUDY    26  23  88 CALM      29.91R
FOND DU LAC    CLOUDY    24  21  88 SE3       29.92S FOG
SHEBOYGAN      LGT SNOW  26  22  84 E6        29.93R FOG     WCI  19
WEST BEND      CLOUDY    25  21  86 CALM      29.90S
JUNEAU         CLOUDY    24  22  95 CALM      29.91R FOG
$$

LSZ147-162-270600-
LAKE SUPERIOR

STATION/POSITION TIME  TEMP    WIND        PRES    WAVE
                       AIR SEA DIR/SP/G            HT/PER
                 (UTC) (F)     (DEG/KT/KT) (MB)    (FT/S)
DEVILS ISLAND    0400   28      10/  7/  7 1014.7R
PORT WING        0400   27     180/  2/  2 1014.2R
SAXON HARBOR     0400   25        CALM     1013.5R
$$

LMZ867-665-643>646-270600-
LAKE MICHIGAN

STATION/POSITION TIME  TEMP    WIND        PRES    WAVE
                       AIR SEA DIR/SP/G            HT/PER
                 (UTC) (F)     (DEG/KT/KT) (MB)    (FT/S)
NORTHPORT PIER   0421   25     150/  9/ 14 1015.6R
SISTER BAY       0413   24     140/  7/ 10   N/A
KEWAUNEE LAKESHO 0400   25     150/ 11/ 15 1013.4R
SHEBOYGAN LAKESH 0400   27     120/ 18/ 19 1014.3F
PORT WASHINGTON  0400   26        CALM     1014.2R
MILWAUKEE LAKESH 0300   27     240/  5/  6   N/A
KENOSHA   LAKESH 0400   27     210/  4/  5 1012.9F
$$

TC  - TEMPERATURE IN CELSIUS
VSB - VISIBILITY IN STATUTE MILES
WCI - WIND CHILL INDEX
HX  - HEAT INDEX




USA.gov is the U.S. government's official web portal to all federal, state and local government web resources and services.